111018021,2007-01-13T07:46:29.415,-3121.35,15456107, 119.39,  53.28, 2574576, 2574600, 2574368, 2574679, 2574651,     170,    0.63,   0.067,    7.64,   20.79,    0.12
111018022,2007-01-13T07:46:32.415,-3118.35,15439679, 119.37,  53.28, 2574523, 2574539, 2574363, 2574674, 2574597,     118,    0.66,   0.067,    8.35,   18.72,    0.06
111018023,2007-01-13T07:46:35.229,-3115.54,15424150, 119.37,  53.29, 2574569, 2574587, 2574376, 2574686, 2574643,     176,    1.03,   0.071,   11.17,   23.25,    0.18
111018024,2007-01-13T07:46:38.043,-3112.72,15408680, 119.36,  53.29, 2574556, 2574571, 2574336, 2574645, 2574629,     163,    0.49,   0.077,    8.52,   19.36,    0.00
111018025,2007-01-13T07:46:40.857,-3109.91,15393211, 119.35,  53.30, 2574573, 2574590, 2574429, 2574737, 2574646,     131,    1.10,   0.079,   11.18,   23.01,    0.22
111018026,2007-01-13T07:46:43.671,-3107.10,15377742, 119.33,  53.30, 2574568, 2574573, 2574319, 2574626, 2574641,     217,    1.09,   0.080,    9.37,   19.33,    0.07
111018027,2007-01-13T07:46:46.485,-3104.28,15362392, 119.30,  53.30, 2574503, 2574509, 2574321, 2574629, 2574576,     144,    0.82,   0.084,    8.33,   20.21,    0.12
111018028,2007-01-13T07:46:49.415,-3101.35,15346503, 119.29,  53.31, 2574523, 2574554, 2574262, 2574569, 2574596,     215,    0.76,   0.090,    9.58,   21.42,    0.05
111018029,2007-01-13T07:46:52.229,-3098.54,15330764, 119.28,  53.31, 2574564, 2574586, 2574367, 2574673, 2574637,     157,    0.73,   0.092,   10.25,   22.06,    0.11
111018030,2007-01-13T07:46:55.043,-3095.72,15315295, 119.27,  53.32, 2574583, 2574602, 2574440, 2574746, 2574656,     142,    1.71,   0.089,   12.32,   24.98,    0.26
111018031,2007-01-13T07:46:57.857,-3092.91,15299976, 119.24,  53.33, 2574580, 2574596, 2574339, 2574644, 2574653,     202,    0.96,   0.081,    9.81,   20.32,    0.07
111018032,2007-01-13T07:47:00.671,-3090.10,15284416, 119.23,  53.34, 2574570, 2574575, 2574388, 2574693, 2574643,     135,    0.83,   0.080,    7.82,   19.69,    0.09
111018033,2007-01-13T07:47:03.485,-3087.28,15269037, 119.22,  53.35, 2574560, 2574549, 2574326, 2574630, 2574633,     173,    0.69,   0.083,   10.44,   21.70,    0.14
111018034,2007-01-13T07:47:06.415,-3084.35,15252938, 119.21,  53.35, 2574538, 2574548, 2574389, 2574693, 2574610,     110,    0.83,   0.085,   10.17,   21.96,    0.19
111018035,2007-01-13T07:47:09.229,-3081.54,15237529, 119.17,  53.36, 2574566, 2574560, 2574334, 2574637, 2574639,     164,    0.82,   0.078,    8.78,   19.61,    0.07
111018036,2007-01-13T07:47:12.043,-3078.72,15222030, 119.15,  53.36, 2574550, 2574561, 2574361, 2574664, 2574622,     140,    0.86,   0.087,    9.72,   20.62,    0.11
111018037,2007-01-13T07:47:14.857,-3075.91,15206530, 119.14,  53.36, 2574557, 2574570, 2574329, 2574630, 2574629,     192,    0.94,   0.096,    8.89,   20.85,    0.04
111018038,2007-01-13T07:47:17.671,-3073.10,15191151, 119.11,  53.37, 2574564, 2574558, 2574391, 2574693, 2574636,     141,    1.30,   0.094,   11.30,   24.32,    0.21
111018039,2007-01-13T07:47:20.485,-3070.28,15175861, 119.09,  53.37, 2574557, 2574535, 2574253, 2574554, 2574628,     193,    0.41,   0.103,    8.01,   18.54,    0.07
111018040,2007-01-13T07:47:23.415,-3067.35,15159583, 119.07,  53.38, 2574581, 2574597, 2574350, 2574650, 2574652,     192,    0.76,   0.111,   10.37,   23.55,    0.10
111018041,2007-01-13T07:47:26.229,-3064.54,15144143, 119.04,  53.38, 2574574, 2574600, 2574396, 2574696, 2574645,     174,    1.00,   0.117,   10.32,   23.80,    0.19
111018042,2007-01-13T07:47:29.043,-3061.72,15128764, 119.02,  53.38, 2574508, 2574525, 2574295, 2574594, 2574578,     167,    0.58,   0.124,    8.33,   20.31,    0.05
111018043,2007-01-13T07:47:31.857,-3058.91,15113265, 119.02,  53.39, 2574577, 2574555, 2574264, 2574562, 2574648,     238,    0.79,   0.120,    8.82,   20.26,    0.02
111018044,2007-01-13T07:47:34.671,-3056.10,15097825, 119.01,  53.40, 2574587, 2574580, 2574372, 2574671, 2574658,     187,    1.31,   0.113,   10.36,   24.05,    0.19
111018045,2007-01-13T07:47:37.485,-3053.28,15082356, 118.97,  53.42, 2574560, 2574585, 2574399, 2574696, 2574630,     144,    0.97,   0.113,    9.82,   23.89,    0.18
111018046,2007-01-13T07:47:40.415,-3050.35,15066227, 118.94,  53.42, 2574580, 2574608, 2574349, 2574646, 2574650,     186,    0.47,   0.124,    9.18,   22.03,    0.08
111018047,2007-01-13T07:47:43.229,-3047.54,15050818, 118.92,  53.42, 2574561, 2574591, 2574340, 2574637, 2574631,     184,    0.57,   0.131,    8.83,   21.99,    0.06
111018048,2007-01-13T07:47:46.043,-3044.72,15035379, 118.90,  53.43, 2574573, 2574583, 2574318, 2574614, 2574642,     224,    0.83,   0.131,    8.72,   23.53,    0.08
111018049,2007-01-13T07:47:48.857,-3041.91,15019939, 118.86,  53.45, 2574592, 2574611, 2574471, 2574766, 2574662,     106,    1.39,   0.136,   10.16,   23.74,    0.25
111018050,2007-01-13T07:47:51.671,-3039.10,15004500, 118.84,  53.46, 2574567, 2574582, 2574378, 2574673, 2574636,     147,    0.59,   0.137,   10.59,   23.48,    0.15
111018051,2007-01-13T07:47:54.485,-3036.28,14989091, 118.83,  53.46, 2574550, 2574566, 2574354, 2574649, 2574619,     165,    0.89,   0.136,    8.79,   21.76,    0.13
111018052,2007-01-13T07:47:57.415,-3033.35,14972962, 118.81,  53.48, 2574594, 2574601, 2574429, 2574723, 2574663,     134,    1.13,   0.135,    9.95,   24.19,    0.19
111018053,2007-01-13T07:48:00.229,-3030.54,14957523, 118.77,  53.49, 2574570, 2574588, 2574355, 2574648, 2574639,     197,    1.17,   0.142,   10.56,   24.03,    0.17
111018054,2007-01-13T07:48:03.043,-3027.72,14942083, 118.73,  53.50, 2574562, 2574598, 2574439, 2574732, 2574630,     137,    1.41,   0.153,   11.64,   26.96,    0.28
111018055,2007-01-13T07:48:05.857,-3024.91,14926764, 118.70,  53.51, 2574539, 2574569, 2574312, 2574605, 2574606,     219,    1.16,   0.165,    8.16,   20.10,    0.12
111018056,2007-01-13T07:48:08.671,-3022.10,14911235, 118.69,  53.52, 2574561, 2574576, 2574411, 2574703, 2574629,     135,    1.67,   0.162,   11.82,   25.46,    0.25
111018057,2007-01-13T07:48:11.485,-3019.28,14895795, 118.72,  53.53, 2574569, 2574595, 2574383, 2574675, 2574638,     166,    0.73,   0.133,   10.80,   23.87,    0.17
111018058,2007-01-13T07:48:14.415,-3016.35,14879697, 118.79,  53.55, 2574557, 2574592, 2574429, 2574720, 2574628,     138,    1.21,   0.083,   10.20,   24.51,    0.22
111018059,2007-01-13T07:48:17.229,-3013.54,14864347, 118.86,  53.57, 2574574, 2574593, 2574353, 2574645, 2574645,     168,    0.69,   0.051,    7.71,   19.53,    0.05
111018060,2007-01-13T07:48:20.043,-3010.72,14848848, 118.92,  53.58, 2574583, 2574569, 2574400, 2574691, 2574654,     130,    1.17,   0.070,   11.99,   23.27,    0.20
111018061,2007-01-13T07:48:22.857,-3007.91,14833349, 118.97,  53.60, 2574623, 2574599, 2574367, 2574657, 2574692,     145,    0.33,   0.108,    8.34,   19.71,    0.04
111018062,2007-01-13T07:48:25.671,-3005.10,14818029, 119.05,  53.62, 2574595, 2574604, 2574277, 2574566, 2574663,     206,    0.33,   0.165,    7.46,   17.63,    0.28
111018063,2007-01-13T07:48:28.485,-3002.28,14802500, 119.07,  53.63, 2574568, 2574614, 2574377, 2574667, 2574634,     199,    1.08,   0.192,    9.95,   24.65,    0.15
111018064,2007-01-13T07:48:31.414,-2999.35,14786461, 119.07,  53.64, 2574571, 2574578, 2574345, 2574635, 2574637,     187,    1.18,   0.196,    8.54,   21.12,    0.10
111018065,2007-01-13T07:48:34.228,-2996.54,14771082, 119.03,  53.65, 2574568, 2574595, 2574378, 2574667, 2574634,     156,    0.85,   0.183,    8.67,   20.70,    0.06
111018066,2007-01-13T07:48:37.042,-2993.73,14755672, 119.02,  53.66, 2574625, 2574609, 2574395, 2574683, 2574691,     133,    0.32,   0.180,    9.17,   20.43,    0.03
111018067,2007-01-13T07:48:39.856,-2990.91,14740293, 118.99,  53.67, 2574540, 2574502, 2574282, 2574569, 2574606,     174,    1.05,   0.170,    9.65,   20.99,    0.11
111018068,2007-01-13T07:48:42.670,-2988.10,14724854, 118.96,  53.68, 2574597, 2574538, 2574358, 2574644, 2574664,     154,    0.77,   0.160,    8.05,   20.55,    0.00
111018069,2007-01-13T07:48:45.484,-2985.28,14709324, 118.94,  53.69, 2574596, 2574597, 2574400, 2574686, 2574663,     134,    1.08,   0.156,   10.33,   22.78,    0.13
111018070,2007-01-13T07:48:48.414,-2982.35,14693495, 118.91,  53.71, 2574560, 2574577, 2574337, 2574623, 2574627,     159,    0.69,   0.148,   10.19,   21.86,    0.07
111018071,2007-01-13T07:48:51.228,-2979.54,14677786, 118.89,  53.72, 2574581, 2574598, 2574370, 2574654, 2574649,     173,    0.80,   0.143,    9.77,   22.88,    0.09
111018072,2007-01-13T07:48:54.042,-2976.73,14662407, 118.88,  53.73, 2574581, 2574555, 2574342, 2574626, 2574648,     181,    1.13,   0.145,    9.66,   22.61,    0.14
111018073,2007-01-13T07:48:56.856,-2973.91,14646998, 118.85,  53.76, 2574574, 2574553, 2574335, 2574619, 2574641,     156,    0.84,   0.137,    8.66,   21.02,    0.04
111018074,2007-01-13T07:48:59.670,-2971.10,14631528, 118.83,  53.78, 2574597, 2574557, 2574367, 2574651, 2574664,     155,    0.91,   0.136,    8.79,   21.52,    0.09
111018075,2007-01-13T07:49:02.484,-2968.28,14616089, 118.81,  53.79, 2574591, 2574589, 2574390, 2574673, 2574658,     170,    1.29,   0.136,    9.62,   23.42,    0.17
111018076,2007-01-13T07:49:05.414,-2965.35,14600080, 118.77,  53.80, 2574611, 2574604, 2574444, 2574726, 2574678,     117,    1.51,   0.126,   11.17,   23.49,    0.22
111018077,2007-01-13T07:49:08.228,-2962.54,14584671, 118.74,  53.81, 2574583, 2574539, 2574354, 2574636, 2574650,     155,    1.07,   0.119,    8.39,   20.04,    0.08
111018078,2007-01-13T07:49:11.042,-2959.73,14569201, 118.71,  53.81, 2574570, 2574513, 2574411, 2574693, 2574639,      77,    1.37,   0.102,   10.42,   25.10,    0.23
111018079,2007-01-13T07:49:13.856,-2956.91,14553672, 118.68,  53.78, 2574588, 2574611, 2574362, 2574643, 2574658,     201,    0.77,   0.072,    8.12,   20.59,    0.04
111018080,2007-01-13T07:49:16.670,-2954.10,14538323, 118.66,  53.75, 2574584, 2574544, 2574322, 2574603, 2574653,     168,    0.50,   0.074,    8.29,   19.21,    0.02
111018081,2007-01-13T07:49:19.484,-2951.28,14522824, 118.63,  53.71, 2574596, 2574607, 2574433, 2574713, 2574664,     121,    0.68,   0.105,   11.12,   23.70,    0.19
111018082,2007-01-13T07:49:22.414,-2948.35,14506845, 118.59,  53.66, 2574632, 2574630, 2574296, 2574576, 2574698,     238,    0.64,   0.154,    6.63,   17.96,    0.23
111018083,2007-01-13T07:49:25.228,-2945.54,14491345, 118.58,  53.63, 2574584, 2574609, 2574319, 2574600, 2574648,     216,    0.94,   0.202,    8.34,   19.98,    0.02
111018084,2007-01-13T07:49:28.042,-2942.73,14475996, 118.56,  53.63, 2574612, 2574621, 2574382, 2574663, 2574675,     170,    1.04,   0.212,    9.28,   22.36,    0.07
111018085,2007-01-13T07:49:30.856,-2939.91,14460467, 118.53,  53.64, 2574603, 2574635, 2574344, 2574624, 2574667,     192,    0.30,   0.206,    7.89,   20.87,    0.06
111018086,2007-01-13T07:49:33.670,-2937.10,14445057, 118.50,  53.65, 2574639, 2574607, 2574356, 2574635, 2574703,     191,    0.90,   0.197,    8.45,   19.75,    0.02
111018087,2007-01-13T07:49:36.484,-2934.28,14429798, 118.49,  53.68, 2574601, 2574579, 2574256, 2574534, 2574666,     260,    1.23,   0.179,    8.46,   19.98,    0.04
111018088,2007-01-13T07:49:39.414,-2931.35,14413639, 118.48,  53.70, 2574589, 2574593, 2574331, 2574608, 2574654,     186,    0.61,   0.165,    8.15,   19.65,    0.02
111018089,2007-01-13T07:49:42.228,-2928.54,14398110, 118.46,  53.71, 2574589, 2574619, 2574367, 2574644, 2574655,     184,    0.60,   0.159,    7.91,   20.74,    0.02
111018090,2007-01-13T07:49:45.042,-2925.73,14382731, 118.43,  53.73, 2574680, 2574633, 2574428, 2574704, 2574746,     170,    0.76,   0.151,    9.20,   23.04,    0.03
111018091,2007-01-13T07:49:47.856,-2922.91,14367351, 118.40,  53.75, 2574652, 2574554, 2574290, 2574565, 2574718,     195,    0.23,   0.131,    7.71,   18.54,    0.12
111018092,2007-01-13T07:49:50.670,-2920.10,14351942, 118.37,  53.77, 2574601, 2574590, 2574438, 2574713, 2574668,     107,    1.25,   0.116,   10.20,   24.39,    0.17
111018093,2007-01-13T07:49:53.484,-2917.28,14336503, 118.35,  53.77, 2574648, 2574622, 2574341, 2574615, 2574714,     218,    0.82,   0.130,    8.21,   19.89,    0.06
111018094,2007-01-13T07:49:56.414,-2914.35,14320554, 118.30,  53.77, 2574675, 2574470, 2574322, 2574596, 2574741,     162,    0.51,   0.142,    9.74,   22.98,    0.00
111018095,2007-01-13T07:49:59.228,-2911.54,14305174, 118.24,  53.77, 2574671, 2574495, 2574275, 2574549, 2574736,     200,    0.23,   0.163,    6.44,   18.08,    0.25
111018096,2007-01-13T07:50:02.042,-2908.73,14289615, 118.18,  53.76, 2574697, 2574717, 2574387, 2574661, 2574761,     206,    0.58,   0.195,    7.63,   20.51,    0.19
111018097,2007-01-13T07:50:04.856,-2905.91,14274116, 118.12,  53.75, 2574709, 2574643, 2574455, 2574730, 2574771,     167,    0.92,   0.232,   10.61,   24.48,    0.11
111018098,2007-01-13T07:50:07.670,-2903.10,14258826, 118.11,  53.74, 2574654, 2574629, 2574359, 2574635, 2574715,     198,    0.72,   0.248,    7.10,   19.65,    0.11
111018099,2007-01-13T07:50:10.484,-2900.28,14243357, 118.14,  53.74, 2574727, 2574606, 2574442, 2574718, 2574788,     147,    0.87,   0.248,    8.92,   22.29,    0.06
111018100,2007-01-13T07:50:13.414,-2897.35,14227318, 118.18,  53.75, 2574684, 2574538, 2574344, 2574618, 2574745,     186,    0.46,   0.225,    8.63,   21.09,    0.06
111018101,2007-01-13T07:50:16.228,-2894.54,14211969, 118.19,  53.76, 2574607, 2574601, 2574282, 2574556, 2574669,     196,    0.26,   0.218,    7.19,   20.03,    0.24
111018102,2007-01-13T07:50:19.042,-2891.73,14196499, 118.19,  53.77, 2574779, 2574541, 2574344, 2574617, 2574841,     201,    0.40,   0.215,    9.29,   23.96,    0.01
111018103,2007-01-13T07:50:21.856,-2888.91,14181030, 118.18,  53.78, 2574667, 2574587, 2574313, 2574585, 2574729,     214,    0.28,   0.214,    6.80,   18.41,    0.25
111018104,2007-01-13T07:50:24.670,-2886.10,14165621, 118.15,  53.78, 2574577, 2574576, 2574310, 2574582, 2574639,     210,    0.69,   0.223,    8.60,   22.48,    0.03
111018105,2007-01-13T07:50:27.484,-2883.28,14150241, 118.13,  53.79, 2574728, 2574517, 2574337, 2574609, 2574789,     202,    0.24,   0.226,    7.23,   18.39,    0.20
111018106,2007-01-13T07:50:30.414,-2880.35,14134143, 118.12,  53.80, 2574746, 2574638, 2574375, 2574646, 2574808,     225,    0.45,   0.218,    8.39,   20.32,    0.10
111018107,2007-01-13T07:50:33.228,-2877.54,14118733, 118.08,  53.84, 2574711, 2574564, 2574374, 2574644, 2574773,     176,    0.61,   0.192,    9.59,   23.23,    0.02
111018108,2007-01-13T07:50:36.042,-2874.73,14103504, 118.04,  53.86, 2574691, 2574597, 2574358, 2574626, 2574753,     172,    0.07,   0.186,    7.48,   20.34,    0.23
111018109,2007-01-13T07:50:38.856,-2871.91,14087915, 117.99,  53.87, 2574746, 2574607, 2574381, 2574649, 2574809,     201,    0.57,   0.192,    7.98,   21.99,    0.02
111018110,2007-01-13T07:50:41.670,-2869.10,14072445, 117.92,  53.88, 2574720, 2574608, 2574406, 2574675, 2574781,     183,    0.51,   0.213,    8.19,   21.28,    0.13
111018111,2007-01-13T07:50:44.484,-2866.28,14057156, 117.93,  53.87, 2574709, 2574639, 2574406, 2574675, 2574770,     179,    0.70,   0.218,    9.04,   19.94,    0.03
111018112,2007-01-13T07:50:47.414,-2863.35,14041027, 117.95,  53.87, 2574657, 2574621, 2574388, 2574656, 2574718,     167,    0.43,   0.222,    7.97,   20.03,    0.11
111018113,2007-01-13T07:50:50.228,-2860.54,14025708, 117.98,  53.86, 2574722, 2574525, 2574328, 2574597, 2574782,     249,    0.72,   0.229,    7.92,   22.18,    0.23
111018114,2007-01-13T07:50:53.042,-2857.73,14010388, 117.97,  53.85, 2574735, 2574589, 2574324, 2574593, 2574795,     233,    0.50,   0.242,    7.88,   19.84,    0.25
111018115,2007-01-13T07:50:55.856,-2854.91,13994979, 117.97,  53.87, 2574674, 2574517, 2574313, 2574581, 2574734,     200,    0.18,   0.232,    6.74,   19.21,    0.57
111018116,2007-01-13T07:50:58.670,-2852.10,13979450, 117.97,  53.89, 2574711, 2574737, 2574370, 2574636, 2574771,     209,   -0.07,   0.214,    6.17,   17.02,    0.43
111018117,2007-01-13T07:51:01.484,-2849.28,13964100, 117.96,  53.90, 2574673, 2574690, 2574366, 2574631, 2574734,     180,   -0.04,   0.209,    7.60,   19.70,    0.27
111018118,2007-01-13T07:51:04.414,-2846.35,13948091, 117.93,  53.92, 2574714, 2574636, 2574362, 2574627, 2574775,     208,    0.62,   0.202,    7.85,   20.01,    0.17
111018119,2007-01-13T07:51:07.228,-2843.54,13932652, 117.90,  53.92, 2574715, 2574599, 2574337, 2574601, 2574776,     216,    0.74,   0.211,    9.40,   22.06,    0.09
111018120,2007-01-13T07:51:10.042,-2840.73,13917333, 117.86,  53.91, 2574784, 2574588, 2574389, 2574655, 2574843,     201,    0.21,   0.238,    8.09,   19.59,    0.21
111018121,2007-01-13T07:51:12.856,-2837.91,13901774, 117.81,  53.93, 2574718, 2574593, 2574345, 2574610, 2574778,     201,    0.48,   0.236,    8.41,   20.17,    0.24
111018122,2007-01-13T07:51:15.670,-2835.10,13886574, 117.78,  53.95, 2574721, 2574562, 2574325, 2574589, 2574781,     214,   -0.11,   0.224,    6.53,   17.62,    0.56
111018123,2007-01-13T07:51:18.484,-2832.28,13871135, 117.77,  53.98, 2574799, 2574778, 2574405, 2574667, 2574859,     258,    0.31,   0.204,    7.02,   19.24,    0.36
111018124,2007-01-13T07:51:21.413,-2829.35,13854886, 117.80,  54.00, 2574773, 2574694, 2574434, 2574695, 2574834,     186,    0.31,   0.171,    7.50,   19.49,    0.18
111018125,2007-01-13T07:51:24.227,-2826.54,13839417, 117.83,  54.01, 2574739, 2574745, 2574389, 2574648, 2574801,     231,    0.35,   0.161,    7.11,   20.35,    0.26
111018126,2007-01-13T07:51:27.041,-2823.73,13824187, 117.84,  54.01, 2574699, 2574510, 2574314, 2574574, 2574761,     186,    0.42,   0.164,    8.04,   19.98,    0.06
111018127,2007-01-13T07:51:29.855,-2820.91,13808808, 117.83,  54.01, 2574802, 2574522, 2574411, 2574670, 2574863,     180,   -0.32,   0.178,    6.58,   19.14,    0.32
111018128,2007-01-13T07:51:32.669,-2818.10,13793309, 117.84,  54.00, 2574613, 2574576, 2574374, 2574634, 2574673,     156,    0.88,   0.195,    7.81,   20.95,    0.03
111018129,2007-01-13T07:51:35.483,-2815.28,13778229, 117.84,  54.01, 2574769, 2574766, 2574359, 2574619, 2574829,     252,    0.04,   0.198,    7.20,   20.30,    0.46
111018130,2007-01-13T07:51:38.413,-2812.35,13761860, 117.81,  54.03, 2574758, 2574532, 2574341, 2574599, 2574818,     225,    0.47,   0.184,    7.53,   19.94,    0.17
111018131,2007-01-13T07:51:41.227,-2809.54,13746511, 117.78,  54.06, 2574765, 2574469, 2574345, 2574602, 2574827,     194,   -0.24,   0.161,    7.36,   18.65,    0.22
111018132,2007-01-13T07:51:44.041,-2806.73,13731222, 117.75,  54.08, 2574773, 2574748, 2574394, 2574650, 2574835,     245,    0.45,   0.148,    7.17,   17.49,    0.38
111018133,2007-01-13T07:51:46.855,-2803.91,13715692, 117.72,  54.09, 2574774, 2574591, 2574348, 2574604, 2574836,     237,    0.43,   0.149,    8.04,   21.30,    0.23
111018134,2007-01-13T07:51:49.669,-2801.10,13700253, 117.67,  54.08, 2574776, 2574583, 2574372, 2574628, 2574837,     239,    0.25,   0.174,    5.61,   17.21,    0.42
111018135,2007-01-13T07:51:52.483,-2798.28,13684724, 117.60,  54.08, 2574801, 2574762, 2574444, 2574701, 2574860,     251,    0.70,   0.204,    7.35,   18.39,    0.25
111018136,2007-01-13T07:51:55.413,-2795.35,13668535, 117.56,  54.07, 2574768, 2574775, 2574404, 2574662, 2574827,     249,    0.33,   0.231,    8.54,   20.02,    0.22
111018137,2007-01-13T07:51:58.227,-2792.54,13653306, 117.56,  54.05, 2574742, 2574667, 2574434, 2574693, 2574799,     219,    0.54,   0.249,    7.74,   19.91,    0.15
111018138,2007-01-13T07:52:01.041,-2789.73,13637926, 117.58,  54.06, 2574746, 2574551, 2574380, 2574638, 2574804,     242,    0.21,   0.242,    7.97,   19.65,    0.38
111018139,2007-01-13T07:52:03.855,-2786.91,13622697, 117.60,  54.08, 2574765, 2574468, 2574355, 2574612, 2574824,     211,    0.04,   0.226,    7.77,   19.15,    0.32
111018140,2007-01-13T07:52:06.669,-2784.10,13607137, 117.60,  54.10, 2574778, 2574643, 2574391, 2574646, 2574837,     246,    0.28,   0.209,    6.83,   20.08,    0.43
111018141,2007-01-13T07:52:09.483,-2781.28,13591998, 117.59,  54.11, 2574784, 2574793, 2574413, 2574667, 2574843,     228,    0.09,   0.205,    6.27,   18.27,    0.50
111018142,2007-01-13T07:52:12.413,-2778.35,13575839, 117.56,  54.12, 2574749, 2574554, 2574340, 2574594, 2574808,     222,    0.24,   0.211,    6.78,   18.25,    0.34
111018143,2007-01-13T07:52:15.227,-2775.54,13560190, 117.54,  54.14, 2574741, 2574747, 2574449, 2574702, 2574800,     219,    0.63,   0.197,    8.72,   21.12,    0.08
111018144,2007-01-13T07:52:18.041,-2772.73,13544871, 117.51,  54.18, 2574711, 2574661, 2574361, 2574612, 2574772,     223,    0.46,   0.156,    7.23,   18.72,    0.27
111018145,2007-01-13T07:52:20.855,-2769.91,13529611, 117.50,  54.21, 2574764, 2574654, 2574378, 2574628, 2574825,     238,    0.52,   0.132,    8.22,   21.09,    0.21
111018146,2007-01-13T07:52:23.669,-2767.10,13514082, 117.46,  54.24, 2574787, 2574775, 2574461, 2574711, 2574849,     274,    1.14,   0.123,    9.30,   21.34,    0.06
111018147,2007-01-13T07:52:26.483,-2764.28,13498583, 117.42,  54.25, 2574789, 2574777, 2574499, 2574748, 2574851,     236,    0.75,   0.128,    8.36,   22.74,    0.07
111018148,2007-01-13T07:52:29.413,-2761.35,13482754, 117.36,  54.27, 2574787, 2574680, 2574475, 2574724, 2574848,     195,    0.78,   0.139,    8.00,   20.54,    0.12
111018149,2007-01-13T07:52:32.227,-2758.54,13467194, 117.37,  54.29, 2574812, 2574758, 2574484, 2574731, 2574874,     190,    0.25,   0.121,    7.18,   19.88,    0.26
111018150,2007-01-13T07:52:35.041,-2755.73,13451725, 117.40,  54.29, 2574801, 2574820, 2574487, 2574734, 2574863,     282,    0.62,   0.106,    8.45,   23.84,    0.07
111018151,2007-01-13T07:52:37.855,-2752.91,13436556, 117.41,  54.28, 2574715, 2574658, 2574338, 2574585, 2574777,     238,    0.41,   0.110,    6.87,   18.71,    0.34
111018152,2007-01-13T07:52:40.669,-2750.10,13420966, 117.40,  54.27, 2574772, 2574774, 2574503, 2574750, 2574833,     194,    0.42,   0.133,    8.57,   21.07,    0.11
111018153,2007-01-13T07:52:43.483,-2747.28,13405887, 117.38,  54.26, 2574755, 2574710, 2574435, 2574682, 2574815,     190,    0.52,   0.157,    7.22,   20.48,    0.25
111018154,2007-01-13T07:52:46.413,-2744.35,13389608, 117.37,  54.25, 2574810, 2574804, 2574426, 2574673, 2574869,     257,    0.40,   0.182,    6.93,   19.00,    0.40
111018155,2007-01-13T07:52:49.227,-2741.54,13374588, 117.34,  54.23, 2574742, 2574753, 2574377, 2574625, 2574799,     229,   -0.02,   0.210,    6.99,   19.31,    0.42
111018156,2007-01-13T07:52:52.041,-2738.73,13358789, 117.31,  54.23, 2574741, 2574748, 2574353, 2574602, 2574799,     302,    0.59,   0.221,    7.83,   19.70,    0.23
111018157,2007-01-13T07:52:54.855,-2735.91,13343830, 117.28,  54.24, 2574749, 2574629, 2574394, 2574643, 2574806,     206,    0.23,   0.227,    7.26,   19.78,    0.26
111018158,2007-01-13T07:52:57.669,-2733.10,13328360, 117.24,  54.25, 2574802, 2574712, 2574459, 2574708, 2574859,     232,    0.70,   0.233,    9.10,   20.81,    0.13
111018159,2007-01-13T07:53:00.483,-2730.28,13312771, 117.20,  54.27, 2574811, 2574653, 2574470, 2574718, 2574868,     196,    0.54,   0.228,    7.57,   20.97,    0.08
111018160,2007-01-13T07:53:03.413,-2727.35,13296642, 117.15,  54.29, 2574721, 2574750, 2574354, 2574600, 2574778,     249,    0.20,   0.217,    6.59,   19.67,    0.42
111018161,2007-01-13T07:53:06.227,-2724.54,13281383, 117.11,  54.33, 2574768, 2574721, 2574385, 2574630, 2574826,     247,    0.57,   0.203,    7.52,   19.01,    0.27
111018162,2007-01-13T07:53:09.041,-2721.73,13266034, 117.12,  54.36, 2574749, 2574682, 2574415, 2574658, 2574808,     220,    0.47,   0.167,    7.15,   19.21,    0.18